owner,sensor,date,latitude,longitude,air_pressure(mBar),qcFlag 
WAVCIS,ioos:station:WAVCIS:CSI06:1,2011-12-01T00:00:00Z,28.8667,-90.4833,1021.36,11111222 
WAVCIS,ioos:station:WAVCIS:CSI06:1,2011-12-01T01:00:00Z,28.8667,-90.4833,1022.05,11111222 
WAVCIS,ioos:station:WAVCIS:CSI06:1,2011-12-01T02:00:00Z,28.8667,-90.4833,1022.28,11111222 
WAVCIS,ioos:station:WAVCIS:CSI06:1,2011-12-01T03:00:00Z,28.8667,-90.4833,1022.43,11111222 
WAVCIS,ioos:station:WAVCIS:CSI06:1,2011-12-01T04:00:00Z,28.8667,-90.4833,1022.51,11111222 
WAVCIS,ioos:station:WAVCIS:CSI06:1,2011-12-01T05:00:00Z,28.8667,-90.4833,1022.37,11111222 
WAVCIS,ioos:station:WAVCIS:CSI06:1,2011-12-01T06:00:00Z,28.8667,-90.4833,1022.36,11111222 
WAVCIS,ioos:station:WAVCIS:CSI06:1,2011-12-01T07:00:00Z,28.8667,-90.4833,1022.2,11111222 
WAVCIS,ioos:station:WAVCIS:CSI06:1,2011-12-01T08:00:00Z,28.8667,-90.4833,1022.36,11111222 
WAVCIS,ioos:station:WAVCIS:CSI06:1,2011-12-01T09:00:00Z,28.8667,-90.4833,1022.1,11111222 
WAVCIS,ioos:station:WAVCIS:CSI06:1,2011-12-01T10:00:00Z,28.8667,-90.4833,1022.24,11111222 
WAVCIS,ioos:station:WAVCIS:CSI06:1,2011-12-01T11:00:00Z,28.8667,-90.4833,1022.79,11111222 
WAVCIS,ioos:station:WAVCIS:CSI06:1,2011-12-01T12:00:00Z,28.8667,-90.4833,1023.42,11111222 
WAVCIS,ioos:station:WAVCIS:CSI06:1,2011-12-01T13:00:00Z,28.8667,-90.4833,1023.87,11111222 
WAVCIS,ioos:station:WAVCIS:CSI06:1,2011-12-01T14:00:00Z,28.8667,-90.4833,1024.68,11111222 
WAVCIS,ioos:station:WAVCIS:CSI06:1,2011-12-01T15:00:00Z,28.8667,-90.4833,1025.1,11111222 
WAVCIS,ioos:station:WAVCIS:CSI06:1,2011-12-01T16:00:00Z,28.8667,-90.4833,1025.28,11111222 
WAVCIS,ioos:station:WAVCIS:CSI06:1,2011-12-01T17:00:00Z,28.8667,-90.4833,1025.37,11111222 
WAVCIS,ioos:station:WAVCIS:CSI06:1,2011-12-01T18:00:00Z,28.8667,-90.4833,1024.89,11111222 
WAVCIS,ioos:station:WAVCIS:CSI06:1,2011-12-01T19:00:00Z,28.8667,-90.4833,1024.63,11111222 
WAVCIS,ioos:station:WAVCIS:CSI06:1,2011-12-01T20:00:00Z,28.8667,-90.4833,1024.24,11111222 
WAVCIS,ioos:station:WAVCIS:CSI06:1,2011-12-01T21:00:00Z,28.8667,-90.4833,1024.38,11111222 
WAVCIS,ioos:station:WAVCIS:CSI06:1,2011-12-01T22:00:00Z,28.8667,-90.4833,1024.29,11111222 
WAVCIS,ioos:station:WAVCIS:CSI06:1,2011-12-01T23:00:00Z,28.8667,-90.4833,1024.55,11111222 
WAVCIS,ioos:station:WAVCIS:CSI06:1,2011-12-02T00:00:00Z,28.8667,-90.4833,1024.75,11111222 
WAVCIS,ioos:station:WAVCIS:CSI06:1,2011-12-02T01:00:00Z,28.8667,-90.4833,1025.44,11111222 
WAVCIS,ioos:station:WAVCIS:CSI06:1,2011-12-02T02:00:00Z,28.8667,-90.4833,1025.77,11111222 
WAVCIS,ioos:station:WAVCIS:CSI06:1,2011-12-02T03:00:00Z,28.8667,-90.4833,1026.22,11111222 
WAVCIS,ioos:station:WAVCIS:CSI06:1,2011-12-02T04:00:00Z,28.8667,-90.4833,1026.46,11111222 
WAVCIS,ioos:station:WAVCIS:CSI06:1,2011-12-02T05:00:00Z,28.8667,-90.4833,1026.61,11111222 
WAVCIS,ioos:station:WAVCIS:CSI06:1,2011-12-02T06:00:00Z,28.8667,-90.4833,1026.37,11111222 
WAVCIS,ioos:station:WAVCIS:CSI06:1,2011-12-02T07:00:00Z,28.8667,-90.4833,1026.2,11111222 
WAVCIS,ioos:station:WAVCIS:CSI06:1,2011-12-02T08:00:00Z,28.8667,-90.4833,1026.28,11111222 
WAVCIS,ioos:station:WAVCIS:CSI06:1,2011-12-02T09:00:00Z,28.8667,-90.4833,1026.38,11111222 
WAVCIS,ioos:station:WAVCIS:CSI06:1,2011-12-02T10:00:00Z,28.8667,-90.4833,1025.84,11111222 
WAVCIS,ioos:station:WAVCIS:CSI06:1,2011-12-02T11:00:00Z,28.8667,-90.4833,1026.09,11111222 
WAVCIS,ioos:station:WAVCIS:CSI06:1,2011-12-02T12:00:00Z,28.8667,-90.4833,1026.56,11111222 
WAVCIS,ioos:station:WAVCIS:CSI06:1,2011-12-02T13:00:00Z,28.8667,-90.4833,1026.96,11111222 
WAVCIS,ioos:station:WAVCIS:CSI06:1,2011-12-02T14:00:00Z,28.8667,-90.4833,1027.98,11111222 
WAVCIS,ioos:station:WAVCIS:CSI06:1,2011-12-02T15:00:00Z,28.8667,-90.4833,1028.43,11111222 
WAVCIS,ioos:station:WAVCIS:CSI06:1,2011-12-02T16:00:00Z,28.8667,-90.4833,1028.13,11111222 
WAVCIS,ioos:station:WAVCIS:CSI06:1,2011-12-02T17:00:00Z,28.8667,-90.4833,1027.8,11111222 
WAVCIS,ioos:station:WAVCIS:CSI06:1,2011-12-02T18:00:00Z,28.8667,-90.4833,1026.96,11111222 
WAVCIS,ioos:station:WAVCIS:CSI06:1,2011-12-02T19:00:00Z,28.8667,-90.4833,1026.26,11111222 
WAVCIS,ioos:station:WAVCIS:CSI06:1,2011-12-02T20:00:00Z,28.8667,-90.4833,1025.38,11111222 
WAVCIS,ioos:station:WAVCIS:CSI06:1,2011-12-02T21:00:00Z,28.8667,-90.4833,1025.15,11111222 
WAVCIS,ioos:station:WAVCIS:CSI06:1,2011-12-02T22:00:00Z,28.8667,-90.4833,1025.02,11111222 
WAVCIS,ioos:station:WAVCIS:CSI06:1,2011-12-02T23:00:00Z,28.8667,-90.4833,1024.95,11111222 
WAVCIS,ioos:station:WAVCIS:CSI06:1,2011-12-03T00:00:00Z,28.8667,-90.4833,1025.03,11111222 
WAVCIS,ioos:station:WAVCIS:CSI06:1,2011-12-03T01:00:00Z,28.8667,-90.4833,1025.56,11111222 
WAVCIS,ioos:station:WAVCIS:CSI06:1,2011-12-03T02:00:00Z,28.8667,-90.4833,1025.66,11111222 
WAVCIS,ioos:station:WAVCIS:CSI06:1,2011-12-03T03:00:00Z,28.8667,-90.4833,1025.66,11111222 
WAVCIS,ioos:station:WAVCIS:CSI06:1,2011-12-03T04:00:00Z,28.8667,-90.4833,1025.98,11111222 
WAVCIS,ioos:station:WAVCIS:CSI06:1,2011-12-03T05:00:00Z,28.8667,-90.4833,1025.54,11111222 
WAVCIS,ioos:station:WAVCIS:CSI06:1,2011-12-03T06:00:00Z,28.8667,-90.4833,1024.32,11111222 
WAVCIS,ioos:station:WAVCIS:CSI06:1,2011-12-03T07:00:00Z,28.8667,-90.4833,1023.62,11111222 
WAVCIS,ioos:station:WAVCIS:CSI06:1,2011-12-03T08:00:00Z,28.8667,-90.4833,1023.09,11111222 
WAVCIS,ioos:station:WAVCIS:CSI06:1,2011-12-03T09:00:00Z,28.8667,-90.4833,1023.09,11111222 
WAVCIS,ioos:station:WAVCIS:CSI06:1,2011-12-03T10:00:00Z,28.8667,-90.4833,1022.88,11111222 
WAVCIS,ioos:station:WAVCIS:CSI06:1,2011-12-03T11:00:00Z,28.8667,-90.4833,1022.62,11111222 
WAVCIS,ioos:station:WAVCIS:CSI06:1,2011-12-03T12:00:00Z,28.8667,-90.4833,1022.98,11111222 
WAVCIS,ioos:station:WAVCIS:CSI06:1,2011-12-03T13:00:00Z,28.8667,-90.4833,1023.14,11111222 
WAVCIS,ioos:station:WAVCIS:CSI06:1,2011-12-03T14:00:00Z,28.8667,-90.4833,1023.45,11111222 
WAVCIS,ioos:station:WAVCIS:CSI06:1,2011-12-03T15:00:00Z,28.8667,-90.4833,1024.36,11111222 
WAVCIS,ioos:station:WAVCIS:CSI06:1,2011-12-03T16:00:00Z,28.8667,-90.4833,1024.37,11111222 
WAVCIS,ioos:station:WAVCIS:CSI06:1,2011-12-03T17:00:00Z,28.8667,-90.4833,1023.56,11111222 
WAVCIS,ioos:station:WAVCIS:CSI06:1,2011-12-03T18:00:00Z,28.8667,-90.4833,1022.73,11111222 
WAVCIS,ioos:station:WAVCIS:CSI06:1,2011-12-03T19:00:00Z,28.8667,-90.4833,1021.95,11111222 
WAVCIS,ioos:station:WAVCIS:CSI06:1,2011-12-03T20:00:00Z,28.8667,-90.4833,1021.63,11111222 
WAVCIS,ioos:station:WAVCIS:CSI06:1,2011-12-03T21:00:00Z,28.8667,-90.4833,1021.33,11111222 
WAVCIS,ioos:station:WAVCIS:CSI06:1,2011-12-03T22:00:00Z,28.8667,-90.4833,1021.51,11111222 
WAVCIS,ioos:station:WAVCIS:CSI06:1,2011-12-03T23:00:00Z,28.8667,-90.4833,1021.59,11111222 
WAVCIS,ioos:station:WAVCIS:CSI06:1,2011-12-04T00:00:00Z,28.8667,-90.4833,1021.75,11111222 
WAVCIS,ioos:station:WAVCIS:CSI06:1,2011-12-04T01:00:00Z,28.8667,-90.4833,1021.87,11111222 
WAVCIS,ioos:station:WAVCIS:CSI06:1,2011-12-04T02:00:00Z,28.8667,-90.4833,1022.04,11111222 
WAVCIS,ioos:station:WAVCIS:CSI06:1,2011-12-04T03:00:00Z,28.8667,-90.4833,1022.08,11111222 
WAVCIS,ioos:station:WAVCIS:CSI06:1,2011-12-04T04:00:00Z,28.8667,-90.4833,1022.03,11111222 
WAVCIS,ioos:station:WAVCIS:CSI06:1,2011-12-04T05:00:00Z,28.8667,-90.4833,1021.8,11111222 
WAVCIS,ioos:station:WAVCIS:CSI06:1,2011-12-04T06:00:00Z,28.8667,-90.4833,1020.99,11111222 
WAVCIS,ioos:station:WAVCIS:CSI06:1,2011-12-04T07:00:00Z,28.8667,-90.4833,1020.67,11111222 
WAVCIS,ioos:station:WAVCIS:CSI06:1,2011-12-04T08:00:00Z,28.8667,-90.4833,1020.37,11111222 
WAVCIS,ioos:station:WAVCIS:CSI06:1,2011-12-04T09:00:00Z,28.8667,-90.4833,1020.37,11111222 
WAVCIS,ioos:station:WAVCIS:CSI06:1,2011-12-04T10:00:00Z,28.8667,-90.4833,1019.89,11111222 
WAVCIS,ioos:station:WAVCIS:CSI06:1,2011-12-04T11:00:00Z,28.8667,-90.4833,1019.63,11111222 
WAVCIS,ioos:station:WAVCIS:CSI06:1,2011-12-04T12:00:00Z,28.8667,-90.4833,1019.59,11111222 
WAVCIS,ioos:station:WAVCIS:CSI06:1,2011-12-04T13:00:00Z,28.8667,-90.4833,1019.96,11111222 
WAVCIS,ioos:station:WAVCIS:CSI06:1,2011-12-04T14:00:00Z,28.8667,-90.4833,1020.1,11111222 
WAVCIS,ioos:station:WAVCIS:CSI06:1,2011-12-04T15:00:00Z,28.8667,-90.4833,1020.17,11111222 
WAVCIS,ioos:station:WAVCIS:CSI06:1,2011-12-04T16:00:00Z,28.8667,-90.4833,1020.26,11111222 
WAVCIS,ioos:station:WAVCIS:CSI06:1,2011-12-04T17:00:00Z,28.8667,-90.4833,1019.95,11111222 
WAVCIS,ioos:station:WAVCIS:CSI06:1,2011-12-04T18:00:00Z,28.8667,-90.4833,1018.76,11111222 
WAVCIS,ioos:station:WAVCIS:CSI06:1,2011-12-04T19:00:00Z,28.8667,-90.4833,1018.04,11111222 
WAVCIS,ioos:station:WAVCIS:CSI06:1,2011-12-04T20:00:00Z,28.8667,-90.4833,1017.54,11111222 
WAVCIS,ioos:station:WAVCIS:CSI06:1,2011-12-04T21:00:00Z,28.8667,-90.4833,1016.82,11111222 
WAVCIS,ioos:station:WAVCIS:CSI06:1,2011-12-04T22:00:00Z,28.8667,-90.4833,1016.28,11111222 
WAVCIS,ioos:station:WAVCIS:CSI06:1,2011-12-04T23:00:00Z,28.8667,-90.4833,1016.4,11111222 
WAVCIS,ioos:station:WAVCIS:CSI06:1,2011-12-05T00:00:00Z,28.8667,-90.4833,1016.75,11111222 
WAVCIS,ioos:station:WAVCIS:CSI06:1,2011-12-05T01:00:00Z,28.8667,-90.4833,1016.85,11111222 
WAVCIS,ioos:station:WAVCIS:CSI06:1,2011-12-05T02:00:00Z,28.8667,-90.4833,1017.01,11111222 
WAVCIS,ioos:station:WAVCIS:CSI06:1,2011-12-05T03:00:00Z,28.8667,-90.4833,1016.99,11111222 
WAVCIS,ioos:station:WAVCIS:CSI06:1,2011-12-05T04:00:00Z,28.8667,-90.4833,1016.81,11111222 
WAVCIS,ioos:station:WAVCIS:CSI06:1,2011-12-05T05:00:00Z,28.8667,-90.4833,1016.56,11111222 
WAVCIS,ioos:station:WAVCIS:CSI06:1,2011-12-05T06:00:00Z,28.8667,-90.4833,1016.51,11111222 
WAVCIS,ioos:station:WAVCIS:CSI06:1,2011-12-05T07:00:00Z,28.8667,-90.4833,1015.7,11111222 
WAVCIS,ioos:station:WAVCIS:CSI06:1,2011-12-05T08:00:00Z,28.8667,-90.4833,1015.23,11111222 
WAVCIS,ioos:station:WAVCIS:CSI06:1,2011-12-05T09:00:00Z,28.8667,-90.4833,1015.06,11111222 
WAVCIS,ioos:station:WAVCIS:CSI06:1,2011-12-05T10:00:00Z,28.8667,-90.4833,1014.6,11111222 
WAVCIS,ioos:station:WAVCIS:CSI06:1,2011-12-05T11:00:00Z,28.8667,-90.4833,1014.27,11111222 
WAVCIS,ioos:station:WAVCIS:CSI06:1,2011-12-05T12:00:00Z,28.8667,-90.4833,1014.5,11111222 
WAVCIS,ioos:station:WAVCIS:CSI06:1,2011-12-05T13:00:00Z,28.8667,-90.4833,1014.93,11111222 
WAVCIS,ioos:station:WAVCIS:CSI06:1,2011-12-05T14:00:00Z,28.8667,-90.4833,1015.23,11111222 
WAVCIS,ioos:station:WAVCIS:CSI06:1,2011-12-05T15:00:00Z,28.8667,-90.4833,1015.7,11111222 
WAVCIS,ioos:station:WAVCIS:CSI06:1,2011-12-05T16:00:00Z,28.8667,-90.4833,1016.24,11111222 
WAVCIS,ioos:station:WAVCIS:CSI06:1,2011-12-05T17:00:00Z,28.8667,-90.4833,1016.34,11111222 
WAVCIS,ioos:station:WAVCIS:CSI06:1,2011-12-05T18:00:00Z,28.8667,-90.4833,1015.72,11111222 
WAVCIS,ioos:station:WAVCIS:CSI06:1,2011-12-05T19:00:00Z,28.8667,-90.4833,1014.63,11111222 
WAVCIS,ioos:station:WAVCIS:CSI06:1,2011-12-05T20:00:00Z,28.8667,-90.4833,1014.27,11111222 
WAVCIS,ioos:station:WAVCIS:CSI06:1,2011-12-05T21:00:00Z,28.8667,-90.4833,1014.23,11111222 
WAVCIS,ioos:station:WAVCIS:CSI06:1,2011-12-05T22:00:00Z,28.8667,-90.4833,1014.19,11111222 
WAVCIS,ioos:station:WAVCIS:CSI06:1,2011-12-05T23:00:00Z,28.8667,-90.4833,1014.58,11111222 
WAVCIS,ioos:station:WAVCIS:CSI06:1,2011-12-06T00:00:00Z,28.8667,-90.4833,1014.84,11111222 
WAVCIS,ioos:station:WAVCIS:CSI06:1,2011-12-06T01:00:00Z,28.8667,-90.4833,1015.26,11111222 
WAVCIS,ioos:station:WAVCIS:CSI06:1,2011-12-06T02:00:00Z,28.8667,-90.4833,1015.88,11111222 
WAVCIS,ioos:station:WAVCIS:CSI06:1,2011-12-06T03:00:00Z,28.8667,-90.4833,1016.09,11111222 
WAVCIS,ioos:station:WAVCIS:CSI06:1,2011-12-06T04:00:00Z,28.8667,-90.4833,1016.44,11111222 
WAVCIS,ioos:station:WAVCIS:CSI06:1,2011-12-06T05:00:00Z,28.8667,-90.4833,1016.64,11111222 
WAVCIS,ioos:station:WAVCIS:CSI06:1,2011-12-06T06:00:00Z,28.8667,-90.4833,1016.3,11111222 
WAVCIS,ioos:station:WAVCIS:CSI06:1,2011-12-06T07:00:00Z,28.8667,-90.4833,1016.48,11111222 
WAVCIS,ioos:station:WAVCIS:CSI06:1,2011-12-06T08:00:00Z,28.8667,-90.4833,1016.57,11111222 
WAVCIS,ioos:station:WAVCIS:CSI06:1,2011-12-06T09:00:00Z,28.8667,-90.4833,1016.56,11111222 
WAVCIS,ioos:station:WAVCIS:CSI06:1,2011-12-06T10:00:00Z,28.8667,-90.4833,1016.75,11111222 
WAVCIS,ioos:station:WAVCIS:CSI06:1,2011-12-06T11:00:00Z,28.8667,-90.4833,1016.86,11111222 
WAVCIS,ioos:station:WAVCIS:CSI06:1,2011-12-06T12:00:00Z,28.8667,-90.4833,1017.31,11111222 
WAVCIS,ioos:station:WAVCIS:CSI06:1,2011-12-06T13:00:00Z,28.8667,-90.4833,1018.18,11111222 
WAVCIS,ioos:station:WAVCIS:CSI06:1,2011-12-06T14:00:00Z,28.8667,-90.4833,1019.08,11111222 
WAVCIS,ioos:station:WAVCIS:CSI06:1,2011-12-06T15:00:00Z,28.8667,-90.4833,1019.27,11111222 
WAVCIS,ioos:station:WAVCIS:CSI06:1,2011-12-06T16:00:00Z,28.8667,-90.4833,1019.26,11111222 
WAVCIS,ioos:station:WAVCIS:CSI06:1,2011-12-06T17:00:00Z,28.8667,-90.4833,1018.96,11111222 
WAVCIS,ioos:station:WAVCIS:CSI06:1,2011-12-06T18:00:00Z,28.8667,-90.4833,1018.97,11111222 
WAVCIS,ioos:station:WAVCIS:CSI06:1,2011-12-06T19:00:00Z,28.8667,-90.4833,1018.15,11111222 
WAVCIS,ioos:station:WAVCIS:CSI06:1,2011-12-06T20:00:00Z,28.8667,-90.4833,1017.97,11111222 
WAVCIS,ioos:station:WAVCIS:CSI06:1,2011-12-06T21:00:00Z,28.8667,-90.4833,1018.12,11111222 
WAVCIS,ioos:station:WAVCIS:CSI06:1,2011-12-06T22:00:00Z,28.8667,-90.4833,1017.85,11111222 
WAVCIS,ioos:station:WAVCIS:CSI06:1,2011-12-06T23:00:00Z,28.8667,-90.4833,1018.16,11111222 
WAVCIS,ioos:station:WAVCIS:CSI06:1,2011-12-07T00:00:00Z,28.8667,-90.4833,1019.02,11111222 
WAVCIS,ioos:station:WAVCIS:CSI06:1,2011-12-07T01:00:00Z,28.8667,-90.4833,1019.42,11111222 
WAVCIS,ioos:station:WAVCIS:CSI06:1,2011-12-07T02:00:00Z,28.8667,-90.4833,1020.0,11111222 
WAVCIS,ioos:station:WAVCIS:CSI06:1,2011-12-07T03:00:00Z,28.8667,-90.4833,1020.62,11111222 
WAVCIS,ioos:station:WAVCIS:CSI06:1,2011-12-07T04:00:00Z,28.8667,-90.4833,1020.88,11111222 
WAVCIS,ioos:station:WAVCIS:CSI06:1,2011-12-07T05:00:00Z,28.8667,-90.4833,1021.11,11111222 
WAVCIS,ioos:station:WAVCIS:CSI06:1,2011-12-07T06:00:00Z,28.8667,-90.4833,1021.29,11111222 
WAVCIS,ioos:station:WAVCIS:CSI06:1,2011-12-07T07:00:00Z,28.8667,-90.4833,1021.1,11111222 
WAVCIS,ioos:station:WAVCIS:CSI06:1,2011-12-07T08:00:00Z,28.8667,-90.4833,1021.39,11111222 
WAVCIS,ioos:station:WAVCIS:CSI06:1,2011-12-07T09:00:00Z,28.8667,-90.4833,1021.64,11111222 
WAVCIS,ioos:station:WAVCIS:CSI06:1,2011-12-07T10:00:00Z,28.8667,-90.4833,1021.98,11111222 
WAVCIS,ioos:station:WAVCIS:CSI06:1,2011-12-07T11:00:00Z,28.8667,-90.4833,1022.42,11111222 
WAVCIS,ioos:station:WAVCIS:CSI06:1,2011-12-07T12:00:00Z,28.8667,-90.4833,1023.05,11111222 
WAVCIS,ioos:station:WAVCIS:CSI06:1,2011-12-07T13:00:00Z,28.8667,-90.4833,1024.2,11111222 
WAVCIS,ioos:station:WAVCIS:CSI06:1,2011-12-07T14:00:00Z,28.8667,-90.4833,1025.46,11111222 
WAVCIS,ioos:station:WAVCIS:CSI06:1,2011-12-07T15:00:00Z,28.8667,-90.4833,1025.85,11111222 
WAVCIS,ioos:station:WAVCIS:CSI06:1,2011-12-07T16:00:00Z,28.8667,-90.4833,1026.11,11111222 
WAVCIS,ioos:station:WAVCIS:CSI06:1,2011-12-07T17:00:00Z,28.8667,-90.4833,1025.98,11111222 
WAVCIS,ioos:station:WAVCIS:CSI06:1,2011-12-07T18:00:00Z,28.8667,-90.4833,1025.33,11111222 
WAVCIS,ioos:station:WAVCIS:CSI06:1,2011-12-07T19:00:00Z,28.8667,-90.4833,1024.73,11111222 
WAVCIS,ioos:station:WAVCIS:CSI06:1,2011-12-07T20:00:00Z,28.8667,-90.4833,1023.97,11111222 
WAVCIS,ioos:station:WAVCIS:CSI06:1,2011-12-07T21:00:00Z,28.8667,-90.4833,1024.23,11111222 
WAVCIS,ioos:station:WAVCIS:CSI06:1,2011-12-07T22:00:00Z,28.8667,-90.4833,1024.31,11111222 
WAVCIS,ioos:station:WAVCIS:CSI06:1,2011-12-07T23:00:00Z,28.8667,-90.4833,1024.66,11111222 
WAVCIS,ioos:station:WAVCIS:CSI06:1,2011-12-08T00:00:00Z,28.8667,-90.4833,1025.0,11111222 
WAVCIS,ioos:station:WAVCIS:CSI06:1,2011-12-08T01:00:00Z,28.8667,-90.4833,1025.93,11111222 
WAVCIS,ioos:station:WAVCIS:CSI06:1,2011-12-08T02:00:00Z,28.8667,-90.4833,1026.72,11111222 
WAVCIS,ioos:station:WAVCIS:CSI06:1,2011-12-08T03:00:00Z,28.8667,-90.4833,1027.09,11111222 
WAVCIS,ioos:station:WAVCIS:CSI06:1,2011-12-08T04:00:00Z,28.8667,-90.4833,1027.35,11111222 
WAVCIS,ioos:station:WAVCIS:CSI06:1,2011-12-08T05:00:00Z,28.8667,-90.4833,1027.28,11111222 
WAVCIS,ioos:station:WAVCIS:CSI06:1,2011-12-08T06:00:00Z,28.8667,-90.4833,1026.63,11111222 
WAVCIS,ioos:station:WAVCIS:CSI06:1,2011-12-08T07:00:00Z,28.8667,-90.4833,1026.63,11111222 
WAVCIS,ioos:station:WAVCIS:CSI06:1,2011-12-08T08:00:00Z,28.8667,-90.4833,1026.64,11111222 
WAVCIS,ioos:station:WAVCIS:CSI06:1,2011-12-08T09:00:00Z,28.8667,-90.4833,1026.1,11111222 
WAVCIS,ioos:station:WAVCIS:CSI06:1,2011-12-08T10:00:00Z,28.8667,-90.4833,1026.01,11111222 
WAVCIS,ioos:station:WAVCIS:CSI06:1,2011-12-08T11:00:00Z,28.8667,-90.4833,1026.16,11111222 
WAVCIS,ioos:station:WAVCIS:CSI06:1,2011-12-08T12:00:00Z,28.8667,-90.4833,1026.25,11111222 
WAVCIS,ioos:station:WAVCIS:CSI06:1,2011-12-08T13:00:00Z,28.8667,-90.4833,1026.52,11111222 
WAVCIS,ioos:station:WAVCIS:CSI06:1,2011-12-08T14:00:00Z,28.8667,-90.4833,1027.19,11111222 
WAVCIS,ioos:station:WAVCIS:CSI06:1,2011-12-08T15:00:00Z,28.8667,-90.4833,1027.58,11111222 
WAVCIS,ioos:station:WAVCIS:CSI06:1,2011-12-08T16:00:00Z,28.8667,-90.4833,1027.1,11111222 
WAVCIS,ioos:station:WAVCIS:CSI06:1,2011-12-08T17:00:00Z,28.8667,-90.4833,1027.23,11111222 
WAVCIS,ioos:station:WAVCIS:CSI06:1,2011-12-08T18:00:00Z,28.8667,-90.4833,1026.32,11111222 
WAVCIS,ioos:station:WAVCIS:CSI06:1,2011-12-08T19:00:00Z,28.8667,-90.4833,1024.98,11111222 
WAVCIS,ioos:station:WAVCIS:CSI06:1,2011-12-08T20:00:00Z,28.8667,-90.4833,1024.22,11111222 
WAVCIS,ioos:station:WAVCIS:CSI06:1,2011-12-08T21:00:00Z,28.8667,-90.4833,1024.07,11111222 
WAVCIS,ioos:station:WAVCIS:CSI06:1,2011-12-08T22:00:00Z,28.8667,-90.4833,1023.53,11111222 
WAVCIS,ioos:station:WAVCIS:CSI06:1,2011-12-08T23:00:00Z,28.8667,-90.4833,1023.73,11111222 
WAVCIS,ioos:station:WAVCIS:CSI06:1,2011-12-09T00:00:00Z,28.8667,-90.4833,1023.93,11111222 
WAVCIS,ioos:station:WAVCIS:CSI06:1,2011-12-09T01:00:00Z,28.8667,-90.4833,1024.1,11111222 
WAVCIS,ioos:station:WAVCIS:CSI06:1,2011-12-09T02:00:00Z,28.8667,-90.4833,1024.27,11111222 
WAVCIS,ioos:station:WAVCIS:CSI06:1,2011-12-09T03:00:00Z,28.8667,-90.4833,1024.14,11111222 
WAVCIS,ioos:station:WAVCIS:CSI06:1,2011-12-09T04:00:00Z,28.8667,-90.4833,1024.23,11111222 
WAVCIS,ioos:station:WAVCIS:CSI06:1,2011-12-09T05:00:00Z,28.8667,-90.4833,1024.14,11111222 
WAVCIS,ioos:station:WAVCIS:CSI06:1,2011-12-09T06:00:00Z,28.8667,-90.4833,1023.57,11111222 
WAVCIS,ioos:station:WAVCIS:CSI06:1,2011-12-09T07:00:00Z,28.8667,-90.4833,1023.36,11111222 
WAVCIS,ioos:station:WAVCIS:CSI06:1,2011-12-09T08:00:00Z,28.8667,-90.4833,1023.03,11111222 
WAVCIS,ioos:station:WAVCIS:CSI06:1,2011-12-09T09:00:00Z,28.8667,-90.4833,1023.06,11111222 
WAVCIS,ioos:station:WAVCIS:CSI06:1,2011-12-09T10:00:00Z,28.8667,-90.4833,1022.86,11111222 
WAVCIS,ioos:station:WAVCIS:CSI06:1,2011-12-09T11:00:00Z,28.8667,-90.4833,1023.18,11111222 
WAVCIS,ioos:station:WAVCIS:CSI06:1,2011-12-09T12:00:00Z,28.8667,-90.4833,1023.4,11111222 
WAVCIS,ioos:station:WAVCIS:CSI06:1,2011-12-09T13:00:00Z,28.8667,-90.4833,1024.19,11111222 
WAVCIS,ioos:station:WAVCIS:CSI06:1,2011-12-09T14:00:00Z,28.8667,-90.4833,1024.76,11111222 
WAVCIS,ioos:station:WAVCIS:CSI06:1,2011-12-09T15:00:00Z,28.8667,-90.4833,1025.19,11111222 
WAVCIS,ioos:station:WAVCIS:CSI06:1,2011-12-09T16:00:00Z,28.8667,-90.4833,1025.37,11111222 
WAVCIS,ioos:station:WAVCIS:CSI06:1,2011-12-09T17:00:00Z,28.8667,-90.4833,1025.32,11111222 
WAVCIS,ioos:station:WAVCIS:CSI06:1,2011-12-09T18:00:00Z,28.8667,-90.4833,1024.62,11111222 
WAVCIS,ioos:station:WAVCIS:CSI06:1,2011-12-09T19:00:00Z,28.8667,-90.4833,1024.05,11111222 
WAVCIS,ioos:station:WAVCIS:CSI06:1,2011-12-09T20:00:00Z,28.8667,-90.4833,1023.53,11111222 
WAVCIS,ioos:station:WAVCIS:CSI06:1,2011-12-09T21:00:00Z,28.8667,-90.4833,1023.95,11111222 
WAVCIS,ioos:station:WAVCIS:CSI06:1,2011-12-09T22:00:00Z,28.8667,-90.4833,1023.79,11111222 
WAVCIS,ioos:station:WAVCIS:CSI06:1,2011-12-09T23:00:00Z,28.8667,-90.4833,1023.8,11111222 
WAVCIS,ioos:station:WAVCIS:CSI06:1,2011-12-10T00:00:00Z,28.8667,-90.4833,1024.66,11111222 
WAVCIS,ioos:station:WAVCIS:CSI06:1,2011-12-10T01:00:00Z,28.8667,-90.4833,1025.6,11111222 
WAVCIS,ioos:station:WAVCIS:CSI06:1,2011-12-10T02:00:00Z,28.8667,-90.4833,1026.51,11111222 
WAVCIS,ioos:station:WAVCIS:CSI06:1,2011-12-10T03:00:00Z,28.8667,-90.4833,1026.81,11111222 
WAVCIS,ioos:station:WAVCIS:CSI06:1,2011-12-10T04:00:00Z,28.8667,-90.4833,1027.03,11111222 
WAVCIS,ioos:station:WAVCIS:CSI06:1,2011-12-10T05:00:00Z,28.8667,-90.4833,1027.47,11111222 
WAVCIS,ioos:station:WAVCIS:CSI06:1,2011-12-10T06:00:00Z,28.8667,-90.4833,1027.31,11111222 
WAVCIS,ioos:station:WAVCIS:CSI06:1,2011-12-10T07:00:00Z,28.8667,-90.4833,1027.07,11111222 
WAVCIS,ioos:station:WAVCIS:CSI06:1,2011-12-10T08:00:00Z,28.8667,-90.4833,1027.54,11111222 
WAVCIS,ioos:station:WAVCIS:CSI06:1,2011-12-10T09:00:00Z,28.8667,-90.4833,1027.54,11111222 
WAVCIS,ioos:station:WAVCIS:CSI06:1,2011-12-10T10:00:00Z,28.8667,-90.4833,1027.03,11111222 
WAVCIS,ioos:station:WAVCIS:CSI06:1,2011-12-10T11:00:00Z,28.8667,-90.4833,1026.9,11111222 
WAVCIS,ioos:station:WAVCIS:CSI06:1,2011-12-10T12:00:00Z,28.8667,-90.4833,1028.04,11111222 
WAVCIS,ioos:station:WAVCIS:CSI06:1,2011-12-10T13:00:00Z,28.8667,-90.4833,1028.19,11111222 
WAVCIS,ioos:station:WAVCIS:CSI06:1,2011-12-10T14:00:00Z,28.8667,-90.4833,1028.65,11111222 
WAVCIS,ioos:station:WAVCIS:CSI06:1,2011-12-10T15:00:00Z,28.8667,-90.4833,1029.78,11111222 
WAVCIS,ioos:station:WAVCIS:CSI06:1,2011-12-10T16:00:00Z,28.8667,-90.4833,1029.96,11111222 
WAVCIS,ioos:station:WAVCIS:CSI06:1,2011-12-10T17:00:00Z,28.8667,-90.4833,1029.79,11111222 
WAVCIS,ioos:station:WAVCIS:CSI06:1,2011-12-10T18:00:00Z,28.8667,-90.4833,1029.12,11111222 
WAVCIS,ioos:station:WAVCIS:CSI06:1,2011-12-10T19:00:00Z,28.8667,-90.4833,1028.12,11111222 
WAVCIS,ioos:station:WAVCIS:CSI06:1,2011-12-10T20:00:00Z,28.8667,-90.4833,1027.52,11111222 
WAVCIS,ioos:station:WAVCIS:CSI06:1,2011-12-10T21:00:00Z,28.8667,-90.4833,1027.13,11111222 
WAVCIS,ioos:station:WAVCIS:CSI06:1,2011-12-10T22:00:00Z,28.8667,-90.4833,1027.02,11111222 
WAVCIS,ioos:station:WAVCIS:CSI06:1,2011-12-10T23:00:00Z,28.8667,-90.4833,1027.11,11111222 
WAVCIS,ioos:station:WAVCIS:CSI06:1,2011-12-11T00:00:00Z,28.8667,-90.4833,1027.06,11111222 
WAVCIS,ioos:station:WAVCIS:CSI06:1,2011-12-11T01:00:00Z,28.8667,-90.4833,1027.81,11111222 
WAVCIS,ioos:station:WAVCIS:CSI06:1,2011-12-11T02:00:00Z,28.8667,-90.4833,1027.71,11111222 
WAVCIS,ioos:station:WAVCIS:CSI06:1,2011-12-11T03:00:00Z,28.8667,-90.4833,1027.67,11111222 
WAVCIS,ioos:station:WAVCIS:CSI06:1,2011-12-11T04:00:00Z,28.8667,-90.4833,1027.77,11111222 
WAVCIS,ioos:station:WAVCIS:CSI06:1,2011-12-11T05:00:00Z,28.8667,-90.4833,1028.12,11111222 
WAVCIS,ioos:station:WAVCIS:CSI06:1,2011-12-11T06:00:00Z,28.8667,-90.4833,1027.92,11111222 
WAVCIS,ioos:station:WAVCIS:CSI06:1,2011-12-11T07:00:00Z,28.8667,-90.4833,1027.96,11111222 
WAVCIS,ioos:station:WAVCIS:CSI06:1,2011-12-11T08:00:00Z,28.8667,-90.4833,1027.34,11111222 
WAVCIS,ioos:station:WAVCIS:CSI06:1,2011-12-11T09:00:00Z,28.8667,-90.4833,1027.26,11111222 
WAVCIS,ioos:station:WAVCIS:CSI06:1,2011-12-11T10:00:00Z,28.8667,-90.4833,1027.94,11111222 
WAVCIS,ioos:station:WAVCIS:CSI06:1,2011-12-11T11:00:00Z,28.8667,-90.4833,1027.36,11111222 
WAVCIS,ioos:station:WAVCIS:CSI06:1,2011-12-11T12:00:00Z,28.8667,-90.4833,1026.96,11111222 
WAVCIS,ioos:station:WAVCIS:CSI06:1,2011-12-11T13:00:00Z,28.8667,-90.4833,1026.57,11111222 
WAVCIS,ioos:station:WAVCIS:CSI06:1,2011-12-11T14:00:00Z,28.8667,-90.4833,1027.82,11111222 
WAVCIS,ioos:station:WAVCIS:CSI06:1,2011-12-11T15:00:00Z,28.8667,-90.4833,1028.16,11111222 
WAVCIS,ioos:station:WAVCIS:CSI06:1,2011-12-11T16:00:00Z,28.8667,-90.4833,1028.47,11111222 
WAVCIS,ioos:station:WAVCIS:CSI06:1,2011-12-11T17:00:00Z,28.8667,-90.4833,1026.64,11111222 
WAVCIS,ioos:station:WAVCIS:CSI06:1,2011-12-11T18:00:00Z,28.8667,-90.4833,1027.21,11111222 
WAVCIS,ioos:station:WAVCIS:CSI06:1,2011-12-11T19:00:00Z,28.8667,-90.4833,1025.56,11111222 
WAVCIS,ioos:station:WAVCIS:CSI06:1,2011-12-11T20:00:00Z,28.8667,-90.4833,1024.8,11111222 
WAVCIS,ioos:station:WAVCIS:CSI06:1,2011-12-11T21:00:00Z,28.8667,-90.4833,1024.29,11111222 
WAVCIS,ioos:station:WAVCIS:CSI06:1,2011-12-11T22:00:00Z,28.8667,-90.4833,1024.17,11111222 